Home > Weather > Montpelier > Past weeks

Flag for USA Past Weather in Montpelier, Vermont, USA — Yesterday and Last 2 Weeks

Now
69 °F

Clear.


Feels Like: 69 °F
Forecast: 64 / 86 °F
Wind: 3 mph from South

Location: Knapp State Airport

Current Time: May 28, 2016 at 1:59:22 AM

Latest Report: May 28, 2016 at 12:51 AM


Visibility: 10 mi

Pressure: 30.05 "Hg

Humidity: 81%

Dew Point: 63 °F

Location of MontpelierLocation

Past Weather in Montpelier — Graph

°F

Montpelier Temperature Yesterday

Maximum temperature yesterday: 84 °F (at 2:51 PM)
Minimum temperature yesterday: 62 °F (at 5:51 AM)
Average temperature yesterday: 74 °F

High & Low Weather Summary for the Past Weeks

 TemperatureHumidityPressure
High84 °F (May 27, 2:51 PM)100% (May 22, 11:51 PM)30.28 "Hg (May 22, 11:51 PM)
Low32 °F (May 16, 3:59 AM)18% (May 23, 4:51 PM)29.54 "Hg (May 15, 12:51 AM)
Average56 °F66%29.99 "Hg
* Reported May 12 11:51 PM — May 27 11:51 PM, Montpelier, Weather by CustomWeather, © 2016

Note: Actual official high and low records may vary slightly from our data, if they occured in-between our weather recording intervals... More about our weather records

Advertising

Montpelier Weather History for the Previous 24 Hours

Scroll right to see more
 ConditionsComfort  
Time TempWeatherWind HumidityBarometerVisibility
11:51 PM
Fri, May 27
72 °FClear.3 mph73%30.04 "Hg10 mi
10:51 PM77 °FClear.3 mph60%30.01 "Hg10 mi
9:51 PM78 °FClear.9 mph56%30.01 "Hg10 mi
8:51 PM76 °FSunny.5 mph60%30.00 "Hg10 mi
7:51 PM81 °FSunny.7 mph51%29.98 "Hg10 mi
6:51 PM83 °FScattered clouds.12 mph48%29.97 "Hg10 mi
5:51 PM84 °FPartly sunny.9 mph45%29.97 "Hg10 mi
4:51 PM83 °FPassing clouds.14 mph51%29.98 "Hg10 mi
3:51 PM84 °FPassing clouds.13 mph48%29.99 "Hg10 mi
2:51 PM84 °FBroken clouds.12 mph49%29.99 "Hg10 mi
1:51 PM82 °FPassing clouds.14 mph49%30.01 "Hg10 mi
12:51 PM80 °FSunny.8 mph54%30.04 "Hg10 mi
11:51 AM76 °FPassing clouds.8 mph58%30.06 "Hg10 mi
10:51 AM74 °FSunny.14 mph57%30.07 "Hg10 mi
9:51 AM71 °FSunny.15 mph63%30.09 "Hg10 mi
8:51 AM68 °FSunny.9 mph65%30.10 "Hg10 mi
7:51 AM65 °FSunny.8 mph73%30.09 "Hg10 mi
6:51 AM63 °FPassing clouds.3 mph75%30.09 "Hg10 mi
5:51 AM62 °FPassing clouds.7 mph78%30.09 "Hg10 mi
4:51 AM63 °FPassing clouds.No wind81%30.09 "Hg10 mi
3:51 AM64 °FMostly cloudy.No wind78%30.10 "Hg10 mi
2:51 AM65 °FOvercast.No wind78%30.09 "Hg10 mi
1:51 AM67 °FMostly cloudy.5 mph71%30.08 "Hg10 mi
Weather by CustomWeather, © 2016

See weather overviewHow to use our weather pages